Location: Peterborough
(44.3091°N, 78.3197°W)
Time: 17:40:18
(UTC-04:00)

Transit 2A - Pass Details

Date: 29 March 2023
Orbit: 591 x 964 km, 66.7° (Epoch: 04 June)

Event Time Altitude Azimuth Distance (km) Brightness Sun altitude
Rises 06:52:23 0° 252° (WSW) 3,291 - -2.2°
Exits shadow 06:53:00 - 255° (WSW) 3,089 8.4 -2.1°
Reaches altitude 10° 06:55:09 10° 266° (W) 2,430 7.9 -1.7°
Maximum altitude 06:59:46 25° 321° (NW) 1,696 7.5 -0.9°
Drops below altitude 10° 07:04:43 10° 15° (NNE) 2,622 9.1 0.0°
Sets 07:07:50 0° 28° (NNE) 3,610 10.0 0.5°
